Time,TemperatureF,DewpointF,PressureIn,WindDirection,WindDirectionDegrees,WindSpeedMPH,WindSpeedGustMPH,Humidity,HourlyPrecipIn,Conditions,Clouds,dailyrainin,SolarRadiationWatts/m^2,SoftwareType,DateUTC
2013-04-19 00:01:00,42.0,23.0,-100.00,ESE,121,4.0,6.0,46,-99.99,,,-99.99,0.000000,,2013-04-19 06:01:00,
2013-04-19 00:11:00,42.0,23.0,-100.00,ESE,121,4.0,6.0,46,-99.99,,,-99.99,0.000000,,2013-04-19 06:11:00,
2013-04-19 00:42:00,41.0,23.0,-100.00,SE,129,5.0,7.0,48,-99.99,,,0.00,0.000000,,2013-04-19 06:42:00,
2013-04-19 00:53:00,41.0,23.0,-100.00,SE,129,5.0,7.0,48,-99.99,,,0.00,0.000000,,2013-04-19 06:53:00,
2013-04-19 01:01:00,41.0,23.0,-100.00,SE,129,5.0,7.0,48,-99.99,,,0.00,0.000000,,2013-04-19 07:01:00,
2013-04-19 01:12:00,41.0,23.0,-100.00,SE,129,5.0,7.0,48,-99.99,,,0.00,0.000000,,2013-04-19 07:12:00,
2013-04-19 02:42:00,40.0,26.0,-100.00,WSW,258,1.0,4.0,55,-99.99,,,-99.99,0.000000,,2013-04-19 08:42:00,
2013-04-19 02:52:00,40.0,26.0,-100.00,WSW,258,1.0,4.0,55,-99.99,,,-99.99,0.000000,,2013-04-19 08:52:00,
2013-04-19 03:01:00,40.0,26.0,-100.00,WSW,258,1.0,4.0,55,-99.99,,,-99.99,0.000000,,2013-04-19 09:01:00,
2013-04-19 03:11:00,40.0,26.0,-100.00,WSW,258,1.0,4.0,55,-99.99,,,-99.99,0.000000,,2013-04-19 09:11:00,
2013-04-19 03:42:00,41.0,25.0,-100.00,SE,146,3.0,6.0,53,-99.99,,,0.00,0.000000,,2013-04-19 09:42:00,
2013-04-19 03:52:00,41.0,25.0,-100.00,SE,146,3.0,6.0,53,-99.99,,,0.00,0.000000,,2013-04-19 09:52:00,
2013-04-19 04:02:00,41.0,25.0,-100.00,SE,146,3.0,6.0,53,-99.99,,,0.00,0.000000,,2013-04-19 10:02:00,
2013-04-19 04:13:00,41.0,25.0,-100.00,SE,146,3.0,6.0,53,-99.99,,,0.00,0.000000,,2013-04-19 10:13:00,
2013-04-19 04:42:00,42.0,25.0,-100.00,SE,139,4.0,7.0,50,-99.99,,,0.00,0.000000,,2013-04-19 10:42:00,
2013-04-19 04:52:00,42.0,25.0,-100.00,SE,139,4.0,7.0,50,-99.99,,,0.00,0.000000,,2013-04-19 10:52:00,
2013-04-19 05:02:00,42.0,25.0,-100.00,SE,139,4.0,7.0,50,-99.99,,,0.00,0.000000,,2013-04-19 11:02:00,
2013-04-19 05:11:00,42.0,25.0,-100.00,SE,139,4.0,7.0,50,-99.99,,,0.00,0.000000,,2013-04-19 11:11:00,
2013-04-19 05:42:00,43.0,25.0,-100.00,SSE,168,4.0,9.0,48,-99.99,,,0.00,0.000000,,2013-04-19 11:42:00,
2013-04-19 05:52:00,43.0,25.0,-100.00,SSE,168,4.0,9.0,48,-99.99,,,0.00,0.000000,,2013-04-19 11:52:00,
2013-04-19 06:02:00,43.0,25.0,-100.00,SSE,168,4.0,9.0,48,-99.99,,,0.00,0.000000,,2013-04-19 12:02:00,
2013-04-19 06:12:00,43.0,25.0,-100.00,SSE,168,4.0,9.0,48,-99.99,,,0.00,0.000000,,2013-04-19 12:12:00,
2013-04-19 06:42:00,42.0,26.0,-100.00,South,171,3.0,6.0,53,-99.99,,,0.00,0.000000,,2013-04-19 12:42:00,
2013-04-19 06:52:00,42.0,26.0,-100.00,South,171,3.0,6.0,53,-99.99,,,0.00,0.000000,,2013-04-19 12:52:00,
2013-04-19 07:01:00,42.0,26.0,-100.00,South,171,3.0,6.0,53,-99.99,,,0.00,0.000000,,2013-04-19 13:01:00,
2013-04-19 07:11:00,42.0,26.0,-100.00,South,171,3.0,6.0,53,-99.99,,,0.00,0.000000,,2013-04-19 13:11:00,
2013-04-19 07:42:00,41.0,28.0,-100.00,SSE,159,3.0,6.0,58,-99.99,,,0.00,14.410000,,2013-04-19 13:42:00,
2013-04-19 07:52:00,41.0,28.0,-100.00,SSE,159,3.0,6.0,58,-99.99,,,0.00,14.410000,,2013-04-19 13:52:00,
2013-04-19 08:01:00,41.0,28.0,-100.00,SSE,159,3.0,6.0,58,-99.99,,,0.00,14.410000,,2013-04-19 14:01:00,
2013-04-19 08:11:00,41.0,28.0,-100.00,SSE,159,3.0,6.0,58,-99.99,,,0.00,14.410000,,2013-04-19 14:11:00,
2013-04-19 08:42:00,42.0,29.0,-100.00,South,178,3.0,10.0,58,-99.99,,,0.00,52.299999,,2013-04-19 14:42:00,
2013-04-19 08:52:00,42.0,29.0,-100.00,South,178,3.0,10.0,58,-99.99,,,0.00,52.299999,,2013-04-19 14:52:00,
2013-04-19 09:01:00,42.0,29.0,-100.00,South,178,3.0,10.0,58,-99.99,,,0.00,52.299999,,2013-04-19 15:01:00,
2013-04-19 09:11:00,42.0,29.0,-100.00,South,178,3.0,10.0,58,-99.99,,,0.00,52.299999,,2013-04-19 15:11:00,
2013-04-19 09:43:00,46.0,32.0,-100.00,South,178,4.0,11.0,57,-99.99,,,0.00,248.830002,,2013-04-19 15:43:00,
2013-04-19 09:52:00,46.0,32.0,-100.00,South,178,4.0,11.0,57,-99.99,,,0.00,248.830002,,2013-04-19 15:52:00,
2013-04-19 10:03:00,46.0,32.0,-100.00,South,178,4.0,11.0,57,-99.99,,,0.00,248.830002,,2013-04-19 16:03:00,
2013-04-19 10:12:00,46.0,32.0,-100.00,South,178,4.0,11.0,57,-99.99,,,0.00,248.830002,,2013-04-19 16:12:00,
2013-04-19 10:42:00,49.0,32.0,-100.00,South,174,7.0,16.0,51,-99.99,,,0.00,392.359985,,2013-04-19 16:42:00,
2013-04-19 10:52:00,49.0,32.0,-100.00,South,174,7.0,16.0,51,-99.99,,,0.00,392.359985,,2013-04-19 16:52:00,
2013-04-19 11:02:00,49.0,32.0,-100.00,South,174,7.0,16.0,51,-99.99,,,0.00,392.359985,,2013-04-19 17:02:00,
2013-04-19 11:11:00,49.0,32.0,-100.00,South,174,7.0,16.0,51,-99.99,,,0.00,392.359985,,2013-04-19 17:11:00,
2013-04-19 11:42:00,52.0,32.0,-100.00,SSW,192,4.0,11.0,46,-99.99,,,0.00,505.089996,,2013-04-19 17:42:00,
2013-04-19 11:52:00,52.0,32.0,-100.00,SSW,192,4.0,11.0,46,-99.99,,,0.00,505.089996,,2013-04-19 17:52:00,
2013-04-19 12:01:00,52.0,32.0,-100.00,SSW,192,4.0,11.0,46,-99.99,,,0.00,505.089996,,2013-04-19 18:01:00,
2013-04-19 12:13:00,52.0,32.0,-100.00,SSW,192,4.0,11.0,46,-99.99,,,0.00,505.089996,,2013-04-19 18:13:00,
2013-04-19 12:42:00,54.0,32.0,-100.00,WSW,242,5.0,12.0,42,-99.99,,,0.00,839.109985,,2013-04-19 18:42:00,
2013-04-19 12:52:00,54.0,32.0,-100.00,WSW,242,5.0,12.0,42,-99.99,,,0.00,839.109985,,2013-04-19 18:52:00,
2013-04-19 13:01:00,54.0,32.0,-100.00,WSW,242,5.0,12.0,42,-99.99,,,0.00,839.109985,,2013-04-19 19:01:00,
2013-04-19 13:11:00,54.0,32.0,-100.00,WSW,242,5.0,12.0,42,-99.99,,,0.00,839.109985,,2013-04-19 19:11:00,
2013-04-19 13:41:00,55.0,32.0,-100.00,WSW,248,5.0,11.0,41,-99.99,,,0.00,774.489990,,2013-04-19 19:41:00,
2013-04-19 13:52:00,55.0,32.0,-100.00,WSW,248,5.0,11.0,41,-99.99,,,0.00,774.489990,,2013-04-19 19:52:00,
2013-04-19 14:01:00,55.0,32.0,-100.00,WSW,248,5.0,11.0,41,-99.99,,,0.00,774.489990,,2013-04-19 20:01:00,
2013-04-19 14:11:00,55.0,32.0,-100.00,WSW,248,5.0,11.0,41,-99.99,,,0.00,774.489990,,2013-04-19 20:11:00,
2013-04-19 14:41:00,54.0,31.0,-100.00,West,271,9.0,14.0,41,-99.99,,,0.00,347.269989,,2013-04-19 20:41:00,
2013-04-19 14:52:00,54.0,31.0,-100.00,West,271,9.0,14.0,41,-99.99,,,0.00,347.269989,,2013-04-19 20:52:00,
2013-04-19 15:01:00,54.0,31.0,-100.00,West,271,9.0,14.0,41,-99.99,,,0.00,347.269989,,2013-04-19 21:01:00,
2013-04-19 15:11:00,54.0,31.0,-100.00,West,271,9.0,14.0,41,-99.99,,,0.00,347.269989,,2013-04-19 21:11:00,
2013-04-19 15:42:00,55.0,31.0,-100.00,WSW,252,5.0,13.0,39,-99.99,,,0.00,456.859985,,2013-04-19 21:42:00,
2013-04-19 15:52:00,55.0,31.0,-100.00,WSW,252,5.0,13.0,39,-99.99,,,0.00,456.859985,,2013-04-19 21:52:00,
2013-04-19 16:02:00,55.0,31.0,-100.00,WSW,252,5.0,13.0,39,-99.99,,,0.00,456.859985,,2013-04-19 22:02:00,
2013-04-19 16:12:00,55.0,31.0,-100.00,WSW,252,5.0,13.0,39,-99.99,,,0.00,456.859985,,2013-04-19 22:12:00,
2013-04-19 16:42:00,54.0,32.0,-100.00,West,280,3.0,10.0,42,-99.99,,,0.00,266.380005,,2013-04-19 22:42:00,
2013-04-19 16:52:00,54.0,32.0,-100.00,West,280,3.0,10.0,42,-99.99,,,0.00,266.380005,,2013-04-19 22:52:00,
2013-04-19 17:02:00,54.0,32.0,-100.00,West,280,3.0,10.0,42,-99.99,,,0.00,266.380005,,2013-04-19 23:02:00,
2013-04-19 17:11:00,54.0,32.0,-100.00,West,280,3.0,10.0,42,-99.99,,,0.00,266.380005,,2013-04-19 23:11:00,
2013-04-19 17:42:00,54.0,34.0,-100.00,NW,314,3.0,8.0,47,-99.99,,,0.00,218.839996,,2013-04-19 23:42:00,
2013-04-19 17:52:00,54.0,34.0,-100.00,NW,314,3.0,8.0,47,-99.99,,,0.00,218.839996,,2013-04-19 23:52:00,
2013-04-19 18:01:00,54.0,34.0,-100.00,NW,314,3.0,8.0,47,-99.99,,,0.00,218.839996,,2013-04-20 00:01:00,
2013-04-19 18:11:00,54.0,34.0,-100.00,NW,314,3.0,8.0,47,-99.99,,,0.00,218.839996,,2013-04-20 00:11:00,
2013-04-19 19:42:00,52.0,35.0,-100.00,NW,307,4.0,9.0,51,-99.99,,,-99.99,170.149994,,2013-04-20 01:42:00,
2013-04-19 19:52:00,52.0,35.0,-100.00,NW,307,4.0,9.0,51,-99.99,,,-99.99,170.149994,,2013-04-20 01:52:00,
2013-04-19 20:01:00,52.0,35.0,-100.00,NW,307,4.0,9.0,51,-99.99,,,-99.99,170.149994,,2013-04-20 02:01:00,
2013-04-19 20:11:00,52.0,35.0,-100.00,NW,307,4.0,9.0,51,-99.99,,,-99.99,170.149994,,2013-04-20 02:11:00,
2013-04-19 20:42:00,48.0,34.0,-100.00,North,9,0.0,2.0,57,-99.99,,,0.00,15.340000,,2013-04-20 02:42:00,
2013-04-19 20:52:00,48.0,34.0,-100.00,North,9,0.0,2.0,57,-99.99,,,0.00,15.340000,,2013-04-20 02:52:00,
2013-04-19 21:01:00,48.0,34.0,-100.00,North,9,0.0,2.0,57,-99.99,,,0.00,15.340000,,2013-04-20 03:01:00,
2013-04-19 21:11:00,48.0,34.0,-100.00,North,9,0.0,2.0,57,-99.99,,,0.00,15.340000,,2013-04-20 03:11:00,
2013-04-19 21:43:00,46.0,33.0,-100.00,West,277,1.0,3.0,60,-99.99,,,-99.99,0.000000,,2013-04-20 03:43:00,
2013-04-19 21:53:00,46.0,33.0,-100.00,West,277,1.0,3.0,60,-99.99,,,-99.99,0.000000,,2013-04-20 03:53:00,
2013-04-19 22:03:00,46.0,33.0,-100.00,West,277,1.0,3.0,60,-99.99,,,-99.99,0.000000,,2013-04-20 04:03:00,
2013-04-19 22:12:00,46.0,33.0,-100.00,West,277,1.0,3.0,60,-99.99,,,-99.99,0.000000,,2013-04-20 04:12:00,
2013-04-19 22:42:00,44.0,33.0,-100.00,East,93,3.0,5.0,66,-99.99,,,0.00,0.000000,,2013-04-20 04:42:00,
2013-04-19 22:52:00,44.0,33.0,-100.00,East,93,3.0,5.0,66,-99.99,,,0.00,0.000000,,2013-04-20 04:52:00,
2013-04-19 23:02:00,44.0,33.0,-100.00,East,93,3.0,5.0,66,-99.99,,,0.00,0.000000,,2013-04-20 05:02:00,
2013-04-19 23:12:00,44.0,33.0,-100.00,East,93,3.0,5.0,66,-99.99,,,0.00,0.000000,,2013-04-20 05:12:00,
2013-04-19 23:42:00,46.0,34.0,-100.00,SSE,152,2.0,4.0,63,-99.99,,,0.00,0.000000,,2013-04-20 05:42:00,
2013-04-19 23:52:00,46.0,34.0,-100.00,SSE,152,2.0,4.0,63,-99.99,,,0.00,0.000000,,2013-04-20 05:52:00,